TimeCST,TemperatureF,Dew PointF,Humidity,Sea Level PressureIn,VisibilityMPH,Wind Direction,Wind SpeedMPH,Gust SpeedMPH,PrecipitationIn,Events,Conditions,WindDirDegrees,DateUTC
12:54 AM,7.0,-0.0,73,30.11,2.5,Calm,Calm,-,0.00,Snow,Light Snow,0,2014-02-01 06:54:00
1:01 AM,6.1,-0.0,76,30.04,1.8,ENE,3.5,-,0.01,Snow,Light Snow,60,2014-02-01 07:01:00
1:54 AM,6.1,3.0,87,30.07,1.2,ENE,5.8,-,0.03,Snow,Light Snow,70,2014-02-01 07:54:00
2:54 AM,7.0,3.9,87,30.06,2.5,ENE,4.6,-,0.02,Snow,Light Snow,60,2014-02-01 08:54:00
3:01 AM,7.0,3.9,87,30.00,4.0,ENE,3.5,-,0.00,Snow,Light Snow,60,2014-02-01 09:01:00
3:08 AM,7.0,3.9,87,30.00,6.0,ENE,3.5,-,0.00,Snow,Light Snow,60,2014-02-01 09:08:00
3:51 AM,8.6,3.2,79,29.99,1.8,Calm,Calm,-,0.00,Snow,Light Snow,0,2014-02-01 09:51:00
3:54 AM,8.1,3.9,83,30.05,1.5,Calm,Calm,-,0.00,Snow,Light Snow,0,2014-02-01 09:54:00
4:03 AM,8.1,5.0,87,29.98,1.5,Calm,Calm,-,0.00,Snow,Light Snow,0,2014-02-01 10:03:00
4:54 AM,9.0,5.0,84,30.02,1.5,ENE,4.6,-,0.03,Snow,Light Snow,60,2014-02-01 10:54:00
5:38 AM,9.0,6.1,88,29.95,2.0,ENE,5.8,-,0.01,Snow,Light Snow,70,2014-02-01 11:38:00
5:45 AM,9.0,6.1,88,29.95,1.8,ENE,4.6,-,0.01,Snow,Light Snow,70,2014-02-01 11:45:00
5:54 AM,9.0,6.1,88,30.03,1.2,East,4.6,-,0.01,Snow,Light Snow,90,2014-02-01 11:54:00
6:33 AM,10.0,7.0,87,29.95,2.0,NE,3.5,-,0.02,Snow,Light Snow,50,2014-02-01 12:33:00
6:54 AM,10.0,7.0,87,30.02,1.8,NNE,3.5,-,0.02,Snow,Light Snow,30,2014-02-01 12:54:00
7:20 AM,10.0,7.0,87,29.96,2.0,Calm,Calm,-,0.01,Snow,Light Snow,0,2014-02-01 13:20:00
7:35 AM,10.0,7.0,87,29.96,1.8,North,4.6,-,0.01,Snow,Light Snow,10,2014-02-01 13:35:00
7:46 AM,10.0,7.0,87,29.96,1.2,North,4.6,-,0.01,Snow,Light Snow,360,2014-02-01 13:46:00
7:54 AM,10.0,7.0,87,30.02,1.2,North,4.6,-,0.02,Snow,Light Snow,360,2014-02-01 13:54:00
8:04 AM,10.0,7.0,87,29.96,1.5,North,4.6,-,0.00,Snow,Light Snow,10,2014-02-01 14:04:00
8:27 AM,10.9,7.0,84,29.96,2.5,North,3.5,-,0.00,Snow,Light Snow,10,2014-02-01 14:27:00
8:34 AM,10.9,7.0,84,29.97,4.0,North,4.6,-,0.00,Snow,Light Snow,10,2014-02-01 14:34:00
8:54 AM,10.9,7.0,84,30.02,5.0,North,4.6,-,0.00,Snow,Light Snow,350,2014-02-01 14:54:00
9:09 AM,12.0,8.1,84,29.96,1.8,North,3.5,-,0.00,Snow,Light Snow,350,2014-02-01 15:09:00
9:17 AM,12.0,8.1,84,29.96,2.0,NNE,3.5,-,0.01,Snow,Light Snow,20,2014-02-01 15:17:00
9:32 AM,12.0,8.1,84,29.97,3.0,North,3.5,-,0.01,Snow,Light Snow,10,2014-02-01 15:32:00
9:54 AM,12.9,8.1,81,30.03,3.0,North,3.5,-,0.01,Snow,Light Snow,350,2014-02-01 15:54:00
10:28 AM,14.0,10.0,84,29.98,2.0,Calm,Calm,-,0.00,Snow,Light Snow,0,2014-02-01 16:28:00
10:46 AM,15.1,10.0,80,29.99,3.0,Calm,Calm,-,0.00,Snow,Light Snow,0,2014-02-01 16:46:00
10:54 AM,16.0,10.0,77,30.05,2.5,Calm,Calm,-,0.00,Snow,Light Snow,0,2014-02-01 16:54:00
11:32 AM,17.1,12.0,81,29.99,1.8,NW,5.8,-,0.00,Snow,Light Snow,320,2014-02-01 17:32:00
11:42 AM,17.1,12.0,81,29.99,2.0,NW,5.8,-,0.00,Snow,Light Snow,320,2014-02-01 17:42:00
11:54 AM,18.0,12.9,81,30.04,2.0,NW,4.6,-,0.00,Snow,Light Snow,320,2014-02-01 17:54:00
12:06 PM,18.0,12.9,81,29.98,4.0,NW,8.1,-,0.01,Snow,Light Snow,320,2014-02-01 18:06:00
12:14 PM,18.0,12.9,81,29.97,6.0,NW,8.1,-,0.01,,Haze,320,2014-02-01 18:14:00
12:35 PM,18.0,12.0,78,29.96,10.0,NW,3.5,-,0.01,,Scattered Clouds,320,2014-02-01 18:35:00
12:54 PM,19.9,12.0,71,30.01,10.0,NNW,4.6,-,0.01,,Clear,340,2014-02-01 18:54:00
1:54 PM,21.0,14.0,74,30.02,10.0,NW,9.2,-,N/A,,Overcast,310,2014-02-01 19:54:00
2:54 PM,19.9,14.0,78,30.03,10.0,NW,11.5,-,N/A,,Overcast,310,2014-02-01 20:54:00
3:54 PM,19.9,15.1,81,30.05,10.0,NW,9.2,-,N/A,,Overcast,310,2014-02-01 21:54:00
4:29 PM,19.0,14.0,81,30.01,10.0,NW,9.2,-,N/A,,Scattered Clouds,310,2014-02-01 22:29:00
4:54 PM,19.0,12.9,77,30.07,10.0,NW,13.8,-,N/A,,Clear,310,2014-02-01 22:54:00
5:54 PM,14.0,10.0,84,30.11,10.0,NW,9.2,-,N/A,,Clear,310,2014-02-01 23:54:00
6:54 PM,10.9,7.0,84,30.15,10.0,WNW,8.1,-,N/A,,Clear,290,2014-02-02 00:54:00
7:54 PM,10.0,5.0,80,30.18,10.0,WNW,9.2,-,N/A,,Clear,300,2014-02-02 01:54:00
8:54 PM,9.0,3.0,77,30.21,10.0,WNW,9.2,-,N/A,,Clear,300,2014-02-02 02:54:00
9:54 PM,7.0,-0.0,73,30.23,10.0,NW,12.7,-,N/A,,Clear,310,2014-02-02 03:54:00
10:54 PM,6.1,-0.9,73,30.25,10.0,NW,13.8,-,N/A,,Clear,310,2014-02-02 04:54:00
11:54 PM,3.9,-2.0,76,30.27,10.0,NW,11.5,-,N/A,,Clear,310,2014-02-02 05:54:00